RADUGA 24 [-]

Last updated on July 6, 2021, 3:35 p.m. UTC

1 20367U 89098A   21186.44814574 -.00000194  00000-0  00000-0 0  9992
2 20367  14.3950 347.9264 0002635  76.8525 102.8858  1.00337354114842
UTC
Height (km)
Latitude
Longitude
Inclination
Orbital Period
UTC large
Height (km)
Speed (km/s)
/
Latitude / Longitude
Inclination (degrees)
Orbital Period (minutes)
Azimuth
Elevation
Range (km)
Doppler Factor
iOS Compass Heading
iOS Angle